Regional Weather Roundup
Issued by NWS

Home | Current Version | Previous Version | Graphics & Text | Print | Product List | Glossary On
Versions: 1 2 3 4 5 6 7 8 9 10 11 12 13 14 15 16 17 18 19 20 21 22 23 24 25 26 27 28 29 30 31 32 33 34 35 36 37 38 39 40 41 42 43 44 45 46 47 48 49 50
000
ASUS43 KIND 011259
RWRIN

WEATHER ROUNDUP FOR INDIANA
NATIONAL WEATHER SERVICE INDIANAPOLIS IN
900 AM EDT WED APR 01 2015

NOTE: "FAIR" INDICATES FEW OR NO CLOUDS BELOW 12,000 FEET WITH NO
SIGNIFICANT WEATHER AND/OR OBSTRUCTIONS TO VISIBILITY.

* - STATION DOES NOT REPORT WEATHER SUCH AS PRECIPITATION OR FOG.

+ - STATION NOT QUALITY CONTROLLED BY THE NATIONAL WEATHER SERVICE.
    USE DATA WITH CAUTION...ESPECIALLY DEWPOINT AND RELATIVE
    HUMIDITY OBSERVATIONS.

INZ001>003-010>013-019-020-011400-
NORTHWEST INDIANA

CITY           SKY/WX    TMP DP  RH WIND       PRES   REMARKS
GARY /AIRPORT/ SUNNY     45  32  61 CALM      30.06R

$$

LMZ046-743>745-011400-
SOUTHERN LAKE MICHIGAN

STATION/POSITION TIME  TEMP WIND        PRES
                       AIR  DIR/SP/G
                 (UTC) (F)  (DEG/KT/KT) (MB)
BURNS HARBOR     1200   42   80/  5/  7 1018.3R
MICHIGAN CITY    1200   38   40/  6/  6   N/A

$$

INZ004-005-014>016-021>024-011400-
NORTH CENTRAL INDIANA

CITY           SKY/WX    TMP DP  RH WIND       PRES   REMARKS
ELKHART        SUNNY     36  32  87 CALM      30.08R
GOSHEN         SUNNY     40  34  79 SW6       30.07R
SOUTH BEND     SUNNY     40  32  73 CALM      30.08R

$$

INZ006>009-017-018-025>027-011400-
NORTHEAST INDIANA

CITY           SKY/WX    TMP DP  RH WIND       PRES   REMARKS
ANGOLA *+      SUNNY     36  28  75 CALM      30.05R
FORT WAYNE     SUNNY     38  35  89 SW8       30.09R

$$

INZ028-029-035-036-043>045-051>053-011400-
WEST CENTRAL INDIANA

CITY           SKY/WX    TMP DP  RH WIND       PRES   REMARKS
GREENCASTLE +  SUNNY     43  32  65 S6        30.09S
LAFAYETTE      SUNNY     43  35  73 CALM      30.08R
TERRE HAUTE    SUNNY     46  37  71 S6        30.11R

$$

INZ030>032-037>040-046>048-054>057-064-065-011400-
CENTRAL INDIANA

CITY           SKY/WX    TMP DP  RH WIND       PRES   REMARKS
ANDERSON       SUNNY     39  36  87 S12       30.10  FOG
COLUMBUS       SUNNY     37  36  93 CALM      30.13R
GREENWOOD *+   MOSUNNY   43  36  75 S8        30.11R
INDIANAPOLIS   SUNNY     43  35  73 S5        30.09R
-EAGLE CREEK   SUNNY     42  35  76 S5        30.10R
KOKOMO *+        N/A     43  36  75 S10       30.08R
MT COMFORT *+  SUNNY     41  32  70 S10       30.11R
SHELBYVILLE    SUNNY     42  37  82 S12       30.11R

$$

INZ033-034-041-042-049-050-058-059-011400-
EAST CENTRAL INDIANA

CITY           SKY/WX    TMP DP  RH WIND       PRES   REMARKS
MUNCIE         SUNNY     41  35  79 SW12      30.09R

$$

INZ060-061-067>069-081>083-085>088-011400-
SOUTHWEST INDIANA

CITY           SKY/WX    TMP DP  RH WIND       PRES   REMARKS
EVANSVILLE     SUNNY     49  40  71 NE3       30.11S
HUNTINGBURG *+ SUNNY     46  37  71 SE6       30.13R

$$

INZ062-063-066-070>080-084-089>092-011400-
SOUTH CENTRAL AND SOUTHEAST INDIANA

CITY           SKY/WX    TMP DP  RH WIND       PRES   REMARKS
BLOOMINGTON    SUNNY     46  37  71 S8        30.11R
MADISON *+     SUNNY     41  36  81 S7        30.15R
SEYMOUR +      SUNNY     45  39  81 S7        30.14R

$$



USA.gov is the U.S. government's official web portal to all federal, state and local government web resources and services.